星链-36089(STARLINK-36089)

导读

STARLINK-36089是美国SpaceX星链星座的卫星,于2025年12月7日发射升空,是星链低轨互联网星座组网计划的组成部分。星链系统旨在为全球提供覆盖广泛、高速稳定的宽带互联网服务,该卫星入轨后将承担星座扩容任务,进一步完善全球网络覆盖能力,助力星链服务覆盖范围与服务质量提升。

基本信息
目录编号:
66947
目录名称:
STARLINK-36089
国际标识:
2025-286Y
轨道中心:
EARTH
卫星名称:
星链-36089
卫星全名:
星链-36089(STARLINK-36089)
卫星状态:
在轨 (已飞行271 天)
发射日期:
2025-12-07 UTC
国别 :
美国 (US)
星等 :
--
轨道信息
数据来源 国际轨道数据
星历时间: 2026-09-03T18:11:10+0800
18小时前
查看轨道信息
半长轴: 6840.832km
偏心率: 0.0001092
轨道倾角: 53.158°
近地点辐角 93.713°
升交点赤经 249.706°
平近点角 266.400°
近地点: 461.947km
远地点: 463.443km
周期: 93.848分钟
每日圈数: 15.34403
详细信息
固有亮度:
5
最大亮度:
2.5
卫星平台:
Starlink V1.0
覆盖范围:
全球
运营商:
太空探索技术公司
运营商所在国:
美国
制造商(研发单位):
太空探索技术公司
制造商所在国:
美国
使用方式:
暂无
卫星简介
Starlink 计划是 SpaceX 推出的全球卫星互联网项目,通过发射低轨道卫星,为全球尤其是偏远地区提供高速、低延迟的互联网服务。自 2019 年起,Starlink 已部署数千颗卫星,旨在缩小全球数字鸿沟,推动互联网普及。该项目还为军事、航空等行业提供通信支持,带来广泛经济效益。
2D轨道图
3D轨道图
轨道高度分析图
轨道倾角分析图
轨道综合分析图
查看轨道综合分析图
交会数据列表
事件ID 空间交会对象 最接近时刻(TCA) 交会距离 交会风险概率(CRP) 交会风险指数(CRI) 操作
CDM_260903-115506-635406-694723
2026-09-03T
11:55:44+0000
2.335 km
极远距离
1.655761E-6 低风险 0.39
CDM_260904-021905-246906-694722
2026-09-04T
02:19:51+0000
2.756 km
极远距离
1.064762E-6 低风险 0.36
CDM_260905-062905-353906-694721
2026-09-05T
06:29:57+0000
2.946 km
极远距离
1.053809E-6 低风险 0.35